This is the latest recevied weather packets stored in our database for station/object SQ9RHX-13. If no packets are shown the sender has not sent any weather packets the latest 10 day(s).
| Time | Temp. | Humidity | Pressure | Rain* | Wind** | Luminosity | Snow |
|---|---|---|---|---|---|---|---|
| 1777966503 | 17.78° C | 65% | 1012.8 hPa | 0 mm | - | 121 W/m² | - |
| 1777966204 | 17.78° C | 66% | 1012.7 hPa | 0 mm | - | 134 W/m² | - |
| 1777965904 | 17.78° C | 67% | 1012.7 hPa | 0 mm | - | 143 W/m² | - |
| 1777965604 | 17.78° C | 67% | 1012.7 hPa | 0 mm | - | 130 W/m² | - |
| 1777965302 | 17.78° C | 67% | 1012.5 hPa | 0 mm | - | 107 W/m² | - |
| 1777965003 | 17.22° C | 67% | 1012.7 hPa | 0 mm | - | 102 W/m² | - |
| 1777964704 | 17.22° C | 68% | 1012.7 hPa | 0 mm | - | 127 W/m² | - |
| 1777964403 | 16.67° C | 69% | 1012.6 hPa | 0 mm | - | 128 W/m² | - |
| 1777964106 | 16.67° C | 69% | 1012.7 hPa | 0 mm | - | 111 W/m² | - |
| 1777963802 | 16.67° C | 70% | 1012.6 hPa | 0 mm | - | 121 W/m² | - |
| 1777963503 | 16.67° C | 71% | 1012.8 hPa | 0 mm | - | 127 W/m² | - |
| 1777963203 | 16.11° C | 72% | 1012.9 hPa | 0 mm | - | 120 W/m² | - |
| 1777962903 | 16.11° C | 72% | 1012.7 hPa | 0 mm | - | 95 W/m² | - |
| 1777962603 | 16.11° C | 72% | 1012.8 hPa | 0 mm | - | 73 W/m² | - |
| 1777962303 | 16.11° C | 72% | 1012.9 hPa | 0 mm | - | 64 W/m² | - |
| 1777962002 | 15.56° C | 73% | 1012.9 hPa | 0 mm | - | 69 W/m² | - |
| 1777961703 | 15.56° C | 73% | 1013.1 hPa | 0 mm | - | 73 W/m² | - |
| 1777961404 | 15.56° C | 73% | 1012.8 hPa | 0 mm | - | 75 W/m² | - |
| 1777961105 | 15.56° C | 74% | 1013 hPa | 0 mm | - | 72 W/m² | - |
| 1777960803 | 15.56° C | 74% | 1012.9 hPa | 0 mm | - | 73 W/m² | - |
| 1777960503 | 15.56° C | 74% | 1013.1 hPa | 0 mm | - | 74 W/m² | - |
| 1777960204 | 15.56° C | 74% | 1013.2 hPa | 0 mm | - | 73 W/m² | - |
| 1777959903 | 15.56° C | 74% | 1013.3 hPa | 0 mm | - | 68 W/m² | - |
| 1777959605 | 15.56° C | 74% | 1013.1 hPa | 0 mm | - | 67 W/m² | - |
| 1777959306 | 15.56° C | 75% | 1013.2 hPa | 0 mm | - | 60 W/m² | - |
* Rain latest hour (hover to see other rain measurements)
** Current wind speed in m/s (hover to see current wind gust speed)